Total_Precipitation_Accumulation
0.75 0.78 0.78 0.74 0.76 0.82 0.90 1.03 1.15 1.03 0.74 0.58 0.56 0.57 0.60 0.61 0.62 0.59 0.51 0.55 0.54 0.52 0.49 0.47 0.46 0.47 0.49 0.54 0.63 0.74 0.86 0.98 1.13 1.28 1.42 1.53 1.65 1.76
0.68 0.69 0.68 0.68 0.72 0.79 0.87 0.96 1.09 1.18 1.00 0.68 0.58 0.55 0.56 0.54 0.55 0.49 0.42 0.47 0.44 0.40 0.39 0.39 0.40 0.41 0.42 0.44 0.50 0.57 0.64 0.74 0.85 1.02 1.22 1.39 1.53 1.66
0.66 0.68 0.70 0.70 0.73 0.74 0.78 0.84 0.92 1.02 1.01 0.73 0.60 0.56 0.53 0.47 0.44 0.40 0.35 0.33 0.30 0.33 0.34 0.35 0.36 0.39 0.41 0.43 0.45 0.50 0.55 0.62 0.71 0.83 0.98 1.14 1.26 1.35
0.60 0.63 0.66 0.68 0.70 0.70 0.71 0.71 0.72 0.75 0.83 0.73 0.54 0.49 0.45 0.44 0.44 0.41 0.36 0.32 0.27 0.29 0.31 0.33 0.35 0.37 0.38 0.40 0.44 0.49 0.53 0.56 0.60 0.65 0.73 0.85 0.97 1.10
0.49 0.52 0.56 0.59 0.59 0.56 0.55 0.55 0.56 0.60 0.67 0.69 0.55 0.47 0.43 0.39 0.40 0.39 0.35 0.31 0.27 0.29 0.33 0.34 0.35 0.36 0.38 0.42 0.46 0.50 0.52 0.55 0.58 0.60 0.63 0.70 0.81 0.94
0.41 0.44 0.44 0.44 0.43 0.43 0.45 0.46 0.52 0.58 0.60 0.64 0.60 0.49 0.45 0.40 0.40 0.35 0.32 0.30 0.29 0.27 0.33 0.36 0.38 0.41 0.43 0.44 0.47 0.50 0.52 0.55 0.61 0.66 0.71 0.76 0.81 0.88
0.40 0.37 0.36 0.37 0.36 0.37 0.40 0.44 0.51 0.59 0.67 0.72 0.68 0.60 0.51 0.44 0.38 0.37 0.42 0.42 0.39 0.33 0.33 0.34 0.38 0.42 0.45 0.49 0.51 0.51 0.52 0.57 0.65 0.74 0.82 0.86 0.89 0.92
0.39 0.36 0.35 0.37 0.35 0.37 0.40 0.48 0.59 0.70 0.81 0.84 0.80 0.69 0.53 0.46 0.46 0.52 0.59 0.67 0.60 0.37 0.38 0.40 0.42 0.48 0.48 0.50 0.58 0.60 0.60 0.63 0.66 0.71 0.76 0.79 0.82 0.86
0.35 0.32 0.30 0.29 0.32 0.29 0.34 0.46 0.55 0.62 0.66 0.67 0.65 0.52 0.47 0.45 0.58 0.74 0.76 0.80 0.65 0.43 0.47 0.53 0.45 0.47 0.47 0.52 0.63 0.62 0.58 0.58 0.60 0.62 0.64 0.64 0.64 0.67
0.29 0.28 0.28 0.28 0.28 0.33 0.39 0.45 0.39 0.35 0.37 0.41 0.43 0.43 0.45 0.51 0.67 0.91 0.99 0.98 0.78 0.59 0.55 0.59 0.46 0.42 0.44 0.48 0.56 0.54 0.49 0.49 0.51 0.54 0.55 0.54 0.54 0.56
0.22 0.22 0.24 0.23 0.29 0.42 0.51 0.51 0.38 0.27 0.29 0.37 0.45 0.46 0.46 0.48 0.55 0.81 0.99 1.07 0.92 0.61 0.52 0.59 0.54 0.50 0.49 0.46 0.48 0.52 0.49 0.47 0.46 0.48 0.50 0.51 0.51 0.55
0.20 0.18 0.22 0.24 0.32 0.44 0.46 0.49 0.42 0.31 0.34 0.36 0.37 0.38 0.36 0.38 0.47 0.63 1.06 1.46 1.25 0.87 0.55 0.64 0.65 0.68 0.80 0.51 0.44 0.47 0.47 0.46 0.45 0.46 0.47 0.49 0.51 0.52
0.20 0.16 0.17 0.28 0.37 0.40 0.37 0.32 0.39 0.47 0.42 0.38 0.38 0.38 0.38 0.40 0.44 0.53 0.84 1.48 1.74 1.27 0.73 1.03 1.11 0.84 0.96 0.69 0.50 0.48 0.49 0.54 0.55 0.53 0.51 0.50 0.49 0.53
0.20 0.17 0.18 0.29 0.30 0.27 0.24 0.28 0.42 0.44 0.35 0.42 0.47 0.45 0.44 0.47 0.52 0.59 0.67 0.85 1.13 1.22 0.91 1.14 1.41 1.04 1.07 0.81 0.52 0.49 0.54 0.67 0.74 0.70 0.63 0.58 0.53 0.53
0.21 0.25 0.26 0.24 0.21 0.19 0.23 0.28 0.28 0.25 0.36 0.55 0.60 0.58 0.60 0.66 0.70 0.72 0.69 0.69 0.71 0.73 0.75 0.80 1.00 0.99 1.09 0.99 0.70 0.61 0.70 0.75 0.87 0.91 0.80 0.64 0.54 0.50
0.25 0.24 0.23 0.21 0.20 0.20 0.23 0.22 0.18 0.24 0.47 0.65 0.70 0.67 0.68 0.72 0.77 0.85 0.92 0.88 0.85 0.72 0.63 0.59 0.66 0.88 0.97 0.76 0.83 0.80 0.85 1.07 1.18 1.19 0.95 0.73 0.60 0.53
0.29 0.21 0.18 0.19 0.18 0.19 0.21 0.21 0.21 0.29 0.41 0.50 0.64 0.69 0.68 0.72 0.79 0.89 0.99 0.98 0.90 0.73 0.58 0.47 0.44 0.50 0.62 0.68 0.72 0.69 0.81 0.99 1.17 1.20 0.97 0.86 0.76 0.65
0.29 0.22 0.21 0.21 0.22 0.25 0.26 0.27 0.28 0.35 0.48 0.63 0.72 0.80 0.88 0.93 0.98 0.97 0.96 0.92 0.80 0.61 0.48 0.38 0.35 0.38 0.34 0.33 0.52 0.73 0.80 0.94 1.07 1.00 0.75 0.79 0.87 0.76
0.26 0.24 0.27 0.29 0.30 0.32 0.34 0.38 0.41 0.45 0.65 0.83 0.92 0.98 1.07 1.10 1.07 0.98 0.84 0.70 0.54 0.38 0.27 0.22 0.32 0.62 0.64 0.36 0.28 0.56 0.93 1.01 0.88 0.80 0.66 0.67 0.87 0.81
0.24 0.30 0.36 0.39 0.39 0.40 0.44 0.53 0.61 0.66 0.77 0.90 0.98 1.07 1.19 1.24 1.09 0.87 0.68 0.54 0.42 0.27 0.16 0.09 0.18 0.55 0.98 0.88 0.63 0.55 0.71 0.97 1.05 0.94 0.68 0.59 0.67 0.66
0.24 0.31 0.37 0.42 0.44 0.47 0.53 0.63 0.77 0.89 0.96 1.07 1.11 1.19 1.24 1.18 0.92 0.64 0.44 0.29 0.27 0.25 0.21 0.10 0.09 0.26 0.58 0.77 0.63 0.43 0.54 0.70 0.92 1.17 1.01 0.84 0.65 0.50
0.23 0.29 0.33 0.38 0.46 0.54 0.62 0.74 0.89 0.97 1.05 1.13 1.19 1.20 1.08 0.92 0.72 0.46 0.34 0.31 0.27 0.25 0.21 0.11 0.07 0.14 0.37 0.65 0.57 0.39 0.42 0.42 0.40 0.44 0.70 1.05 1.42 1.37
0.25 0.31 0.34 0.40 0.49 0.61 0.73 0.80 0.91 1.00 1.11 1.20 1.17 1.02 0.82 0.62 0.42 0.36 0.34 0.34 0.33 0.27 0.22 0.17 0.12 0.14 0.23 0.37 0.47 0.41 0.34 0.31 0.26 0.31 0.51 0.59 0.79 1.03